"Pseudo-MPEC" for P20JEyK

Created 2018 Oct 14 3:18:14 UT using Find_Orb

Click here for an explanation of pseudo-MPECs

 
 Astrometry: 
     P20JEyK  C2018 10 10iQAstrometryf$_-8@$%UPq+ig/F!sKy'uVtov;,?*]_cwlU=q4LF52
     P20JEyK  C2018 10 10!+2DLAj';p'Bk7p;heG-p^m3[9hRd#%ebk0ifTp'$w#p5N1Wm2d=F52
     P20JEyK  C2018 10 10p1PRK?*ivcU^T?MAsxxuZHdb3AUE`s;q#GvB,frou1$:8yg6U?25F52
     P20JEyK  C2018 10 10APQTLaSf4I77p44T,redacted;LO=PCVOdl**XtKc%Z5f3U6l8-ZF52
     P20JEyK |C2018 10 13c425=P?:`n%RS/e'4N,n=M\r'rd?YEyw322QRkJ.-Ys4H!uHRjO%807
     P20JEyK |C2018 10 13UI8TH5A4HLPTrRTBaV4P$6%tT'MEW,TZseeDb\4)q60Gj(TxJ;nO807
     P20JEyK |C2018 10 13E*e$%t,,s=lMwji3$L*:\,^d`75!+o**J/YDo?=21D/!gBZ9'Nv3807
     P20JEyK KC2018 10 13g`sXON=EXHy\1XZwwlbuUcbQwXLRE98qhF4g%6f;!DB[usM]I\14L01
     P20JEyK pC2018 10 13xgl$?8=20hTWA6m-QH+M*G1=Jn=[(o#Nsvfj.QXb.5)x\j)NEOCPL01

Station data:
(807) Cerro Tololo Observatory, La Serena  (S30.169136 W70.805900)  Chile.
   1.5-m Ritchey-Chrétien.
(F52) Pan-STARRS 2, Haleakala  (N20.707384 W156.255910)  US/Hawaii.
(L01) Višnjan Observatory, Tičan  (N45.290900 E13.749300)  Croatia.  Observer
   K. Korlević. 1.0-m f/2.9 reflector + CCD.

Orbital elements:  P20JEyK
   Perihelion 2018 Sep 14.126621 +/- 1.51 TT =  3:02:20 (JD 2458375.626621)
Epoch 2018 Oct 13.0 TT = JDT 2458404.5   Earth MOID: 0.6235   AutoNEOCP
M   5.93964 +/- 0.8                 (J2000 ecliptic)
n   0.20571345 +/- 0.0279           Peri.  303.35028 +/- 1.7
a   2.84202298 +/- 0.257            Node    51.44959 +/- 1.3
e   0.4481559 +/- 0.0376            Incl.   15.38874 +/- 0.9
P   4.79                   H 20.0   G  0.15   U 10.3  
q 1.56835345 +/- 0.039    Q 4.11569251 +/- 0.532
From 9 observations 2018 Oct. 10-13; mean residual 0".21
Residuals in arcseconds: 
181010 F52  .08+  .01+    181010 F52  .03-  .03+    181013 807  .00   .23-    
181010 F52  .12-  .09+    181013 807  .07-  .25+    181013 L01  .51-  .22-    
181010 F52  .06+  .13-    181013 807  .08+  .02-    181013 L01  .51+  .22+    

Ephemerides (geocentric):
Date (UTC) HH   RA              Dec         delta   r     elong  mag " sig PA
---- -- -- --  -------------   -----------  ------ ------ -----  --- ---- ---
2018 10 14 03  00 48 42.743   -21 04 13.35  .64750 1.5923 150.2 21.0  1.2  14
2018 10 14 04  00 48 40.605   -21 03 18.40  .64763 1.5924 150.2 21.0  1.2  15
2018 10 14 05  00 48 38.470   -21 02 23.41  .64775 1.5924 150.2 21.0  1.3  16
2018 10 14 06  00 48 36.337   -21 01 28.38  .64787 1.5925 150.2 21.0  1.4  17
2018 10 14 07  00 48 34.207   -21 00 33.31  .64799 1.5926 150.2 21.0  1.5  17
2018 10 14 08  00 48 32.078   -20 59 38.19  .64811 1.5926 150.1 21.0  1.6  18
2018 10 14 09  00 48 29.953   -20 58 43.04  .64824 1.5927 150.1 21.0  1.8  19
2018 10 14 10  00 48 27.829   -20 57 47.84  .64836 1.5927 150.1 21.0  1.9  19
2018 10 14 11  00 48 25.708   -20 56 52.61  .64848 1.5928 150.1 21.0  2.0  20
2018 10 14 12  00 48 23.589   -20 55 57.33  .64861 1.5929 150.1 21.0  2.1  20
2018 10 14 13  00 48 21.473   -20 55 02.01  .64873 1.5929 150.1 21.0  2.2  20
2018 10 14 14  00 48 19.359   -20 54 06.65  .64886 1.5930 150.1 21.0  2.3  21
2018 10 14 15  00 48 17.248   -20 53 11.25  .64898 1.5931 150.1 21.0  2.4  21
2018 10 14 16  00 48 15.139   -20 52 15.82  .64910 1.5931 150.1 21.0  2.5  22
2018 10 14 17  00 48 13.032   -20 51 20.34  .64923 1.5932 150.0 21.0  2.7  22
2018 10 14 18  00 48 10.928   -20 50 24.82  .64936 1.5933 150.0 21.0  2.8  22
2018 10 14 19  00 48 08.826   -20 49 29.25  .64948 1.5933 150.0 21.0  2.9  22
2018 10 14 20  00 48 06.727   -20 48 33.65  .64961 1.5934 150.0 21.0  3.0  23
2018 10 14 21  00 48 04.630   -20 47 38.01  .64973 1.5935 150.0 21.1  3.2  23
2018 10 14 22  00 48 02.535   -20 46 42.33  .64986 1.5935 150.0 21.1  3.3  23
2018 10 14 23  00 48 00.443   -20 45 46.61  .64999 1.5936 150.0 21.1  3.4  23
2018 10 15 00  00 47 58.354   -20 44 50.85  .65012 1.5937 150.0 21.1  3.6  24
2018 10 15 01  00 47 56.267   -20 43 55.05  .65024 1.5938 149.9 21.1  3.7  24
2018 10 15 02  00 47 54.182   -20 42 59.21  .65037 1.5938 149.9 21.1  3.9  24
2018 10 15 03  00 47 52.100   -20 42 03.33  .65050 1.5939 149.9 21.1  4.0  24
2018 10 15 04  00 47 50.020   -20 41 07.42  .65063 1.5940 149.9 21.1  4.1  24
2018 10 15 05  00 47 47.943   -20 40 11.46  .65076 1.5940 149.9 21.1  4.3  24
2018 10 15 06  00 47 45.869   -20 39 15.46  .65089 1.5941 149.9 21.1  4.4  25
2018 10 15 07  00 47 43.797   -20 38 19.42  .65102 1.5942 149.9 21.1  4.6  25
2018 10 15 08  00 47 41.727   -20 37 23.35  .65115 1.5942 149.9 21.1  4.7  25
2018 10 15 09  00 47 39.660   -20 36 27.23  .65128 1.5943 149.9 21.1  4.9  25
2018 10 15 10  00 47 37.596   -20 35 31.08  .65141 1.5944 149.8 21.1  5.0  25
2018 10 15 11  00 47 35.534   -20 34 34.89  .65154 1.5944 149.8 21.1  5.2  25
2018 10 15 12  00 47 33.474   -20 33 38.66  .65167 1.5945 149.8 21.1  5.4  25
2018 10 15 13  00 47 31.418   -20 32 42.39  .65180 1.5946 149.8 21.1  5.5  26
2018 10 15 14  00 47 29.363   -20 31 46.08  .65193 1.5946 149.8 21.1  5.7  26
2018 10 15 15  00 47 27.312   -20 30 49.73  .65207 1.5947 149.8 21.1  5.9  26
2018 10 15 16  00 47 25.263   -20 29 53.35  .65220 1.5948 149.8 21.1  6.0  26
2018 10 15 17  00 47 23.216   -20 28 56.92  .65233 1.5948 149.8 21.1  6.2  26
2018 10 15 18  00 47 21.172   -20 28 00.46  .65246 1.5949 149.7 21.1  6.4  26
2018 10 15 19  00 47 19.131   -20 27 03.96  .65260 1.5950 149.7 21.1  6.5  26
2018 10 15 20  00 47 17.092   -20 26 07.42  .65273 1.5950 149.7 21.1  6.7  26
2018 10 15 21  00 47 15.056   -20 25 10.85  .65287 1.5951 149.7 21.1  6.9  27
2018 10 15 22  00 47 13.023   -20 24 14.23  .65300 1.5952 149.7 21.1  7.1  27
2018 10 15 23  00 47 10.992   -20 23 17.58  .65313 1.5953 149.7 21.1  7.3  27
2018 10 16 00  00 47 08.964   -20 22 20.89  .65327 1.5953 149.7 21.1  7.4  27
2018 10 16 01  00 47 06.938   -20 21 24.16  .65341 1.5954 149.6 21.1  7.6  27
2018 10 16 02  00 47 04.915   -20 20 27.40  .65354 1.5955 149.6 21.1  7.8  27